• Join FlightAware (Why Join?)
  • Login
  • US Flag 
06:23PM EDT


 

Airport Tracker/Info


-or-


 

Live Flight TrackerFlight Track Log ✈ UAL4476 ✈ 15-Apr-2013 ✈ KCLE - KBOS

Flight Track Log - Related Links

Times and Time Zones

All times are in EDT time to prevent confusion due to time zone crossing. See the UAL4476 flight status page for this flight to view local times or setup timezone preferences in your user account.

Time Position Orientation Groundspeed Altitude Reporting Facility
EDT Latitude Longitude Course Direction KTS MPH feet Rate Location/Type
08:54AM 41.3897 -81.8839 258° West 152 175 2,100  Level Cleveland Center
08:55AM 41.3808 -81.9392 258° West 237 273 3,300 2,100 Climbing Cleveland Center
08:56AM 41.4028 -82.0144 291° West 251 289 6,000 2,640 Climbing Cleveland Center
08:57AM 41.4697 -81.9992 10° North 218 251 8,600 2,280 Climbing Cleveland Center
08:58AM 41.5142 -81.9336 48° Northeast 220 253 10,600 1,500 Climbing Cleveland Center
08:59AM 41.5672 -81.8458 51° Northeast 272 313 11,700 1,140 Climbing Cleveland Center
09:00AM 41.6308 -81.7444 50° Northeast 330 380 12,900 1,320 Climbing Cleveland Center
09:01AM 41.6967 -81.6428 49° Northeast 352 405 14,400 1,440 Climbing Cleveland Center
09:02AM 41.7706 -81.5269 49° Northeast 364 419 15,800 1,440 Climbing Cleveland Center
09:03AM 41.8172 -81.4078 62° Northeast 371 427 17,300 1,500 Climbing Cleveland Center
09:04AM 41.8411 -81.2689 77° East 369 425 18,800 1,500 Climbing Cleveland Center
09:05AM 41.8650 -81.1242 77° East 377 434 20,300 1,500 Climbing Cleveland Center
09:06AM 41.8906 -80.9819 76° East 387 445 21,900 1,500 Climbing Cleveland Center
09:07AM 41.9139 -80.8342 78° East 393 452 23,300 1,440 Climbing Cleveland Center
09:08AM 41.9392 -80.6864 77° East 401 461 24,800 1,440 Climbing Cleveland Center
09:09AM 41.9642 -80.5300 78° East 406 467 26,200 1,260 Climbing Cleveland Center
09:10AM 41.9869 -80.3961 77° East 414 476 27,400 1,260 Climbing Cleveland Center
09:11AM 42.0094 -80.2478 78° East 409 471 28,800 1,440 Climbing Cleveland Center
09:12AM 42.0319 -80.0911 79° East 414 476 30,300 1,440 Climbing Cleveland Center
09:13AM 42.0542 -79.9428 79° East 414 476 31,700 1,260 Climbing Cleveland Center
09:14AM 42.0761 -79.7886 79° East 414 476 32,900 1,140 Climbing Cleveland Center
09:15AM 42.0978 -79.6289 80° East 419 482 34,000 1,020 Climbing Cleveland Center
09:16AM 42.1214 -79.4692 79° East 424 488 35,000 480 Climbing Cleveland Center
09:17AM 42.1425 -79.3033 80° East 437 503 35,000  Level Cleveland Center
09:18AM 42.1656 -79.1292 80° East 452 520 35,000  Level Cleveland Center
09:19AM 42.1883 -78.9606 80° East 463 533 35,000  Level Cleveland Center
09:20AM 42.2128 -78.7861 79° East 463 533 35,000  Level Cleveland Center
09:21AM 42.2350 -78.6144 80° East 468 539 35,000  Level Cleveland Center
09:22AM 42.2569 -78.4456 80° East 468 539 35,000  Level Cleveland Center
09:23AM 42.2767 -78.2736 81° East 468 539 35,000  Level Cleveland Center
09:24AM 42.3000 -78.0986 80° East 468 539 35,000  Level Cleveland Center
09:25AM 42.3192 -77.9267 81° East 468 539 35,000  Level Cleveland Center
09:26AM 42.3419 -77.7514 80° East 468 539 35,000  Level Cleveland Center
09:27AM 42.3606 -77.5792 82° East 468 539 35,000  Level Cleveland Center
09:29AM 42.4011 -77.2347 81° East 465 535 35,000  Level Boston Center
09:30AM 42.4208 -77.0619 81° East 465 535 35,000  Level Boston Center
09:31AM 42.4425 -76.8861 80° East 465 535 35,000  Level Boston Center
09:32AM 42.4617 -76.7131 81° East 465 535 35,000  Level Boston Center
09:33AM 42.4839 -76.5061 82° East 465 535 35,000  Level Boston Center
09:34AM 42.5025 -76.3353 82° East 465 535 35,000  Level Boston Center
09:35AM 42.5214 -76.1392 82° East 465 535 35,000  Level Boston Center
09:36AM 42.5250 -75.9647 88° East 465 535 35,000  Level Boston Center
09:37AM 42.5283 -75.7872 88° East 465 535 35,000  Level Boston Center
09:38AM 42.5333 -75.6128 88° East 465 535 35,000  Level Boston Center
09:39AM 42.5358 -75.4383 89° East 459 528 35,000  Level Boston Center
09:40AM 42.5364 -75.2608 90° East 459 528 35,000  Level Boston Center
09:41AM 42.5397 -75.1200 88° East 459 528 35,000  Level Boston Center
09:42AM 42.5422 -74.9172 89° East 459 528 35,000  Level Boston Center
09:43AM 42.5436 -74.7481 89° East 453 521 35,000  Level Boston Center
09:44AM 42.5447 -74.5875 89° East 463 533 35,000  Level Boston Center
09:45AM 42.5481 -74.4072 89° East 457 526 35,000  Level Boston Center
09:46AM 42.5508 -74.2325 89° East 451 519 35,000  Level Boston Center
09:47AM 42.5514 -74.0606 90° East 451 519 35,000  Level Boston Center
09:48AM 42.5517 -73.8886 90° East 456 525 35,000 -180 Level Boston Center
09:49AM 42.5536 -73.7139 89° East 456 525 34,700 -1,020 Descending Boston Center
09:50AM 42.5536 -73.5392 90° East 456 525 33,000 -1,920 Descending Boston Center
09:51AM 42.5531 -73.3672 90° East 456 525 30,900 -2,100 Descending Boston Center
09:52AM 42.5542 -73.2067 89° East 475 547 28,900 -2,100 Descending Boston Center
09:53AM 42.5531 -73.0319 90° East 460 529 26,800 -1,980 Descending Boston Center
09:54AM 42.5517 -72.8517 91° East 460 529 25,000 -1,800 Descending Boston Center
09:55AM 42.5522 -72.6908 90° East 446 513 23,200 -1,920 Descending Boston Center
09:56AM 42.5506 -72.5217 91° East 439 505 21,200 -2,100 Descending Boston Center
09:57AM 42.5483 -72.3528 91° East 425 489 19,000 -1,860 Descending Boston Center
09:58AM 42.5461 -72.1894 91° East 420 483 17,600 -1,740 Descending Boston Center
09:59AM 42.5414 -72.0400 92° East 415 478 15,300 -2,100 Descending Boston Center
10:00AM 42.5283 -71.8767 96° East 397 457 13,000 -2,040 Descending Boston Center
10:01AM 42.5150 -71.7275 97° East 378 435 11,200 -1,140 Descending Boston Center
10:02AM 42.5000 -71.6167 100° East 365 420 11,000 -300 Descending KA90
10:03AM 42.5000 -71.4833 90° East 340 391 10,700 -660 Descending KA90
10:04AM 42.4833 -71.3667 101° East 299 344 9,700 -1,020 Descending KA90
10:05AM 42.4667 -71.2833 105° East 279 321 8,800 -1,260 Descending KA90
10:06AM 42.4167 -71.1667 120° Southeast 273 314 7,100 -1,260 Descending KA90
10:07AM 42.3833 -71.1333 144° Southeast 240 276 6,300 -1,020 Descending KA90
10:07AM 42.3597 -71.1447 200° South 224 258 6,000 -1,140 Descending Boston Center
10:08AM 42.3100 -71.1794 207° Southwest 192 221 4,800 -1,140 Descending Boston Center
10:09AM 42.2783 -71.1381 136° Southeast 187 215 3,800 -1,380 Descending Boston Center
10:10AM 42.2667 -71.0833 106° East 163 188 2,500 -1,380 Descending KA90
10:11AM 42.3000 -71.0500 36° Northeast 158 182 1,500 -960 Descending KA90
10:12AM 42.3333 -71.0333 20° North 140 161 700 2,820 Descending KA90
10:14AM 42.3989 -70.9528 42° Northeast 127 146 11,000 4,260 Climbing Boston Center